This is the latest recevied weather packets stored in our database for station/object AI5KP-13. If no packets are shown the sender has not sent any weather packets the latest 1 day(s).
| Time | Temp. | Humidity | Pressure | Rain* | Wind** | Luminosity | Snow |
|---|---|---|---|---|---|---|---|
| 1778029495 | 10° C | 93% | 1008.2 hPa | 0 mm | 1.34 m/s, 13° | 0 W/m² | - |
| 1778029191 | 10° C | 94% | 1008.1 hPa | 0 mm | 0.45 m/s, 47° | 1 W/m² | - |
| 1778028889 | 10° C | 93% | 1008.1 hPa | 0 mm | 2.68 m/s, 347° | 1 W/m² | - |
| 1778028583 | 10° C | 93% | 1008.1 hPa | 0 mm | 0.89 m/s, 350° | 1 W/m² | - |
| 1778028282 | 10° C | 94% | 1008.5 hPa | 0 mm | 1.34 m/s, 25° | 2 W/m² | - |
| 1778027978 | 10° C | 94% | 1008.3 hPa | 0 mm | 3.13 m/s, 22° | 3 W/m² | - |
| 1778027675 | 10° C | 94% | 1008.3 hPa | 0 mm | 1.79 m/s, 12° | 3 W/m² | - |
| 1778027371 | 10° C | 94% | 1008.2 hPa | 0 mm | 2.24 m/s, 27° | 4 W/m² | - |
| 1778027067 | 10° C | 94% | 1007.8 hPa | 0 mm | 2.24 m/s, 11° | 6 W/m² | - |
| 1778026762 | 10.56° C | 94% | 1007.7 hPa | 0 mm | 2.68 m/s, 354° | 6 W/m² | - |
| 1778026460 | 10.56° C | 94% | 1007.9 hPa | 0 mm | 2.24 m/s, 22° | 6 W/m² | - |
| 1778026157 | 10.56° C | 94% | 1007.7 hPa | 0 mm | 1.34 m/s, 7° | 7 W/m² | - |
| 1778025855 | 10.56° C | 94% | 1007.7 hPa | 0 mm | 0.89 m/s, 40° | 9 W/m² | - |
| 1778025551 | 10.56° C | 94% | 1007.6 hPa | 0 mm | 2.68 m/s, 3° | 12 W/m² | - |
| 1778025249 | 11.11° C | 94% | 1007.7 hPa | 0 mm | 1.79 m/s, 326° | 12 W/m² | - |
| 1778024946 | 11.11° C | 94% | 1007.6 hPa | 0 mm | 2.24 m/s, 5° | 11 W/m² | - |
| 1778024643 | 11.11° C | 94% | 1007.7 hPa | 0 mm | 3.13 m/s, 311° | 13 W/m² | - |
| 1778024340 | 11.67° C | 94% | 1007.3 hPa | 0 mm | 1.34 m/s, 304° | 13 W/m² | - |
| 1778024038 | 11.67° C | 93% | 1006.9 hPa | 0 mm | 3.13 m/s, 49° | 24 W/m² | - |
| 1778023735 | 11.67° C | 94% | 1007 hPa | 0 mm | 2.24 m/s, 61° | 17 W/m² | - |
| 1778023433 | 11.67° C | 94% | 1006.9 hPa | 0 mm | 1.34 m/s, 321° | 14 W/m² | - |
| 1778023129 | 12.22° C | 93% | 1007 hPa | 0 mm | 1.79 m/s, 27° | 14 W/m² | - |
| 1778022827 | 12.22° C | 92% | 1007.1 hPa | 0 mm | 1.79 m/s, 325° | 15 W/m² | - |
| 1778022525 | 12.22° C | 92% | 1007.1 hPa | 0 mm | 2.68 m/s, 30° | 19 W/m² | - |
| 1778022222 | 12.78° C | 91% | 1007 hPa | 0 mm | 2.68 m/s, 357° | 21 W/m² | - |
* Rain latest hour (hover to see other rain measurements)
** Current wind speed in m/s (hover to see current wind gust speed)